Location: Klein M�hlingen
(51.9472°N, 11.7453°E)
Time: 08:34:38
(UTC+00:00)

Envisat - Pass Details

Date: 30 September 2021
Orbit: 764 x 766 km, 98.2° (Epoch: 22 October)

Event Time Altitude Azimuth Distance (km) Brightness Sun altitude
Rises 04:08:42 0° 17° (NNE) 3,245 6.6 -10.6°
Reaches altitude 10° 04:11:05 10° 23° (NNE) 2,314 5.9 -10.2°
Maximum altitude 04:16:04 53° 100° (E) 942 3.9 -9.5°
Drops below altitude 10° 04:21:01 10° 177° (S) 2,296 5.4 -8.7°
Sets 04:23:21 0° 182° (S) 3,218 6.1 -8.4°
